Location: El Carrer d�Abaix
(41.5797°N, 2.1791°E)
Time: 00:09:31
(UTC+00:00)

USA 238 - Pass Details

Date: 06 June 2020
Orbit: 1014 x 1198 km, 63.4° (Epoch: 02 June)

Event Time Altitude Azimuth Distance (km) Brightness Sun altitude
Rises 20:20:15 0° 326° (NW) 3,951 8.5 -9.4°
Reaches altitude 10° 20:22:56 10° 329° (NNW) 3,016 7.5 -9.8°
Maximum altitude 20:30:08 66° 52° (NE) 1,263 4.1 -10.7°
Enters shadow 20:36:34 15° 132° (SE) 2,774 5.2 -11.6°
